Regional Weather Roundup
Issued by NWS

Home | Current Version | Previous Version | Graphics & Text | Print | Product List | Glossary Off
Versions: 1 2 3 4 5 6 7 8 9 10 11 12 13 14 15 16 17 18 19 20 21 22 23 24 25 26 27 28 29 30 31 32 33 34 35 36 37 38 39 40 41 42 43 44 45 46 47 48 49 50

000
ASUS43 KMKX 222121
RWRWI

WISCONSIN REGIONAL WEATHER ROUNDUP
NATIONAL WEATHER SERVICE MILWAUKEE/SULLIVAN WI
400 PM CDT SAT JUL 22 2017

NOTE: "FAIR" INDICATES FEW OR NO CLOUDS BELOW 12,000 FEET WITH NO
SIGNIFICANT WEATHER AND/OR OBSTRUCTIONS TO VISIBILITY.

WIZ001-002-006>008-014>016-023>028-222200-
NORTHWEST WISCONSIN

CITY           SKY/WX    TMP DP  RH WIND       PRES   REMARKS
SUPERIOR ARPT  NOT AVBL
ASHLAND        SUNNY     76  66  71 N6        29.82S
HAYWARD        MOSUNNY   83  65  54 NW7       29.82S HX  85
SIREN          SUNNY     82  64  53 NW6       29.83S HX  84
CUMBERLAND     SUNNY     82  61  47 NW13      29.84R HX  83
RICE LAKE      PTSUNNY   86  63  46 W9        29.84R HX  87
CHETEK         PTSUNNY   87  66  48 NW5       29.82S HX  89
LADYSMITH      MOSUNNY   85  65  52 W7        29.83S HX  86
EAU CLAIRE     MOSUNNY   87  67  51 W9        29.79F HX  90
MENOMONIE      MOSUNNY   84  71  64 W5        29.80S HX  88
NEW RICHMOND   PTSUNNY   84  67  56 NW8       29.82S HX  86
OSCEOLA        MOSUNNY   87  66  50 NW8       29.84S HX  89
$$

WIZ003>005-009-010-017-018-222200-
NORTH CENTRAL WISCONSIN

CITY           SKY/WX    TMP DP  RH WIND       PRES   REMARKS
MANITOWISH WTR PTSUNNY   80  66  61 NW7       29.81F HX  82
ARBOR VITAE    SUNNY     83  67  58 NW6       29.81S HX  86
WOODRUFF       SUNNY     83  67  58 NW6       29.81S HX  86
RHINELANDER    MOSUNNY   86  66  51 SW8       29.82F HX  88
EAGLE RIVER    PTSUNNY   82  64  53 NW5       29.81F HX  83
LAND O LAKES   MOSUNNY   81  62  50 W7        29.83F HX  82
PHILLIPS       CLOUDY    82  67  61 W3        29.81S HX  84
TOMAHAWK         N/A     84  64  50 W6        29.81F HX  85
MEDFORD        MOSUNNY   83  65  54 W9        29.82S HX  85
MERRILL        PTSUNNY   86  69  56 W8        29.81S HX  89
$$

WIZ029-030-035-036-043>047-222200-
CENTRAL WISCONSIN

CITY           SKY/WX    TMP DP  RH WIND       PRES   REMARKS
WAUSAU         MOSUNNY   85  66  53 W12       29.80S HX  87
MOSINEE        PTSUNNY   82  68  61 W10       29.83S HX  85
MARSHFIELD     MOSUNNY   85  68  56 W8        29.82S HX  88
STEVENS POINT  PTSUNNY   84  66  54 W6        29.81F HX  86
WAUPACA        MOSUNNY   87  66  50 CALM      29.80F HX  89
WAUTOMA        MOSUNNY   84  70  62 W7        29.81F HX  88
WISC RAPIDS    SUNNY     85  69  58 W6        29.82F HX  89
CAMP DOUGLAS   SUNNY     83  70  65 CALM      29.82F HX  87
$$

WIZ011>013-019>022-031-037>040-048>050-222200-
NORTHEAST WISCONSIN

CITY           SKY/WX    TMP DP  RH WIND       PRES   REMARKS
ANTIGO         MOSUNNY   83  66  56 W8        29.82F HX  85
SHAWANO        PTSUNNY   85  68  56 SW6       29.78F HX  88
OCONTO         SUNNY     79  66  64 S6        29.79F HX  81
STURGEON BAY     N/A     78  66  66 CALM      29.81F HX  80
GREEN BAY      PTSUNNY   84  69  60 W7        29.80S HX  88
MANITOWOC      SUNNY     78  66  66 SE9       29.81S HX  80
APPLETON       PTSUNNY   81  63  54 VRB5      29.80S HX  82
CLINTONVILLE   SUNNY     82  66  57 SE6       29.79F HX  85
OSHKOSH        MOSUNNY   82  67  60 NW6       29.80F HX  84
$$

WIZ032>034-041-042-053>061-222200-
SOUTHWEST WISCONSIN

CITY           SKY/WX    TMP DP  RH WIND       PRES   REMARKS
LA CROSSE      MOSUNNY   84  72  67 VRB3      29.81S HX  89
SPARTA         SUNNY     82  69  65 CALM      29.82F HX  85
VIROQUA        CLOUDY    81  73  75 CALM      29.85S HX  86
BOSCOBEL       MOSUNNY   85  72  65 E5        29.80F HX  91
PRAIRIE DU CHI MOSUNNY   81  71  73 CALM      29.80F HX  85
PLATTEVILLE    MOSUNNY   83  76  77 CALM      29.82F HX  92
$$

WIZ056-057-062-063-064-067-068-222200-
SOUTH CENTRAL WISCONSIN

CITY           SKY/WX    TMP DP  RH WIND       PRES   REMARKS
REEDSBURG      SUNNY     80  71  75 S3        29.82F HX  83
BARABOO/DELLS  SUNNY     82  67  60 SW3       29.82F HX  84
LONE ROCK      SUNNY     82  70  66 CALM      29.81F HX  86
MINERAL POINT  SUNNY     82  73  74 SW3       29.83F HX  88
MADISON        PTSUNNY   81  70  69 CALM      29.82F HX  84
MIDDLETON      PTSUNNY   81  74  80 CALM      29.83S HX  86
WATERTOWN      CLOUDY    81  73  76 CALM      29.82F HX  85
MONROE         MOSUNNY   81  70  69 CALM      29.82F HX  84
JANESVILLE     PTSUNNY   82  72  69 NW5       29.81F HX  87
$$

WIZ051-052-058>065-066-070>072-222200-
SOUTHEAST WISCONSIN

CITY           SKY/WX    TMP DP  RH WIND       PRES   REMARKS
MILWAUKEE      PTSUNNY   81  72  74 VRB6      29.82S HX  85
WAUKESHA       PTSUNNY   79  70  73 W8        29.83S HX  81
MILWAUKEE/TIMM CLOUDY    79  66  65 SE7       29.83R HX  81
RACINE         PTSUNNY   77  72  84 SE8       29.83S
KENOSHA        MOSUNNY   82  71  69 W6        29.82S HX  86
FOND DU LAC    PTSUNNY   81  67  62 CALM      29.81S HX  83
SHEBOYGAN      MOSUNNY   78  71  79 E7        29.81S HX  80
WEST BEND      CLOUDY    81  70  69 CALM      29.82S HX  84
JUNEAU         PTSUNNY   78  71  77 CALM      29.84S HX  81
$$

LSZ147-162-222200-
LAKE SUPERIOR

STATION/POSITION TIME  TEMP    WIND        PRES    WAVE
                       AIR SEA DIR/SP/G            HT/PER
                 (UTC) (F)     (DEG/KT/KT) (MB)    (FT/S)
W MID LAKE BUOY  2050   49 47   50/  6/  8 1010.4R   2/ 4
DEVILS ISLAND    2100   54      40/  7/  9 1010.8F
PORT WING        2045   60      20/ 11/ 12 1010.5
SAXON HARBOR     2040   65      40/  8/  9 1009.8S
$$

LMZ867-665-643>646-222200-
LAKE MICHIGAN

STATION/POSITION TIME  TEMP    WIND        PRES    WAVE
                       AIR SEA DIR/SP/G            HT/PER
                 (UTC) (F)     (DEG/KT/KT) (MB)    (FT/S)
CHAMBERS ISLAND  2040   78     320/  6/  6 1008.8F
S GREEN BAY BUOY 2100   77 76  320/  2/  2 1009.2
N MID LAKE BUOY  2050   69 69   60/  4/  6 1009.6F   0
NORTHPORT PIER   2040   72      90/  6/  8 1009.1F
KEWAUNEE LAKESHO 2054   73      80/  3/  6 1008.6F
SHEBOYGAN LAKESH 2100   70     110/  4/  5 1009.1F
PORT WASHINGTON  2030   74     180/  6/  7 1010.8R
ATWATER BUOY     2009   69 69   90/  4/  6 1010.0F
MILWAUKEE LAKESH 2100   69      60/  5/  6   N/A
S MID LAKE BUOY  2050   70 70  350/  8/ 10 1009.2F   1/ 4
KENOSHA   LAKESH 2100   72      80/  4/  5 1009.5
$$

TC  - TEMPERATURE IN CELSIUS
VSB - VISIBILITY IN STATUTE MILES
WCI - WIND CHILL INDEX
HX  - HEAT INDEX





USA.gov is the U.S. government's official web portal to all federal, state and local government web resources and services.